owner,sensor,date,latitude,longitude,vertical_datum,wind_speed,wind_to_direction,wind_speed_of_gust,qcFlag 
SCCF RECON,ioos:station:SCCF:53:1,2017-09-01T00:00:00Z,26.6493,-81.8810,2.11,5.1,204.7,-9999.0,'1111122,1111122,1111122' 
SCCF RECON,ioos:station:SCCF:53:1,2017-09-01T00:15:00Z,26.6493,-81.8810,2.11,3.5,235.4,-9999.0,'1111122,1111122,1111122' 
SCCF RECON,ioos:station:SCCF:53:1,2017-09-01T00:30:00Z,26.6493,-81.8810,2.11,2.1,242.1,-9999.0,'1111122,1111122,1111122' 
SCCF RECON,ioos:station:SCCF:53:1,2017-09-01T00:45:00Z,26.6493,-81.8810,2.11,1.2,244.0,-9999.0,'1111122,1111122,1111122' 
SCCF RECON,ioos:station:SCCF:53:1,2017-09-01T01:00:00Z,26.6493,-81.8810,2.11,2.6,233.5,-9999.0,'1111122,1111122,1111122' 
SCCF RECON,ioos:station:SCCF:53:1,2017-09-01T01:15:00Z,26.6493,-81.8810,2.11,2.3,340.7,-9999.0,'1111122,1111122,1111122' 
SCCF RECON,ioos:station:SCCF:53:1,2017-09-01T01:30:00Z,26.6493,-81.8810,2.11,2.8,333.7,-9999.0,'1111122,1111122,1111122' 
SCCF RECON,ioos:station:SCCF:53:1,2017-09-01T01:45:00Z,26.6493,-81.8810,2.11,2.2,301.8,-9999.0,'1111122,1111122,1111122' 
SCCF RECON,ioos:station:SCCF:53:1,2017-09-01T02:00:00Z,26.6493,-81.8810,2.11,1.0,308.7,-9999.0,'1111122,1111122,1111122' 
SCCF RECON,ioos:station:SCCF:53:1,2017-09-01T02:15:00Z,26.6493,-81.8810,2.11,0.4,295.9,-9999.0,'1111122,1111122,1111122' 
SCCF RECON,ioos:station:SCCF:53:1,2017-09-01T02:30:00Z,26.6493,-81.8810,2.11,0.7,283.7,-9999.0,'1111122,1111122,1111122' 
SCCF RECON,ioos:station:SCCF:53:1,2017-09-01T02:45:00Z,26.6493,-81.8810,2.11,0.9,30.1,-9999.0,'1111122,1111122,1111122' 
SCCF RECON,ioos:station:SCCF:53:1,2017-09-01T03:00:00Z,26.6493,-81.8810,2.11,2.8,56.7,-9999.0,'1111122,1111122,1111122' 
SCCF RECON,ioos:station:SCCF:53:1,2017-09-01T03:15:00Z,26.6493,-81.8810,2.11,2.1,54.6,-9999.0,'1111122,1111122,1111122' 
SCCF RECON,ioos:station:SCCF:53:1,2017-09-01T03:30:00Z,26.6493,-81.8810,2.11,0.4,0.9,-9999.0,'1111122,1111122,1111122' 
SCCF RECON,ioos:station:SCCF:53:1,2017-09-01T03:45:00Z,26.6493,-81.8810,2.11,0.3,40.3,-9999.0,'1111122,1111122,1111122' 
SCCF RECON,ioos:station:SCCF:53:1,2017-09-01T04:00:00Z,26.6493,-81.8810,2.11,1.8,83.6,-9999.0,'1111122,1111122,1111122' 
SCCF RECON,ioos:station:SCCF:53:1,2017-09-01T04:15:00Z,26.6493,-81.8810,2.11,1.6,92.3,-9999.0,'1111122,1111122,1111122' 
SCCF RECON,ioos:station:SCCF:53:1,2017-09-01T04:30:00Z,26.6493,-81.8810,2.11,2.3,50.2,-9999.0,'1111122,1111122,1111122' 
SCCF RECON,ioos:station:SCCF:53:1,2017-09-01T04:45:00Z,26.6493,-81.8810,2.11,3.7,54.5,-9999.0,'1111122,1111122,1111122' 
SCCF RECON,ioos:station:SCCF:53:1,2017-09-01T05:00:00Z,26.6493,-81.8810,2.11,3.2,58.6,-9999.0,'1111122,1111122,1111122' 
SCCF RECON,ioos:station:SCCF:53:1,2017-09-01T05:15:00Z,26.6493,-81.8810,2.11,4.0,76.5,-9999.0,'1111122,1111122,1111122' 
SCCF RECON,ioos:station:SCCF:53:1,2017-09-01T05:30:00Z,26.6493,-81.8810,2.11,2.3,82.1,-9999.0,'1111122,1111122,1111122' 
SCCF RECON,ioos:station:SCCF:53:1,2017-09-01T05:45:00Z,26.6493,-81.8810,2.11,3.7,61.6,-9999.0,'1111122,1111122,1111122' 
SCCF RECON,ioos:station:SCCF:53:1,2017-09-01T06:00:00Z,26.6493,-81.8810,2.11,2.5,90.1,-9999.0,'1111122,1111122,1111122' 
SCCF RECON,ioos:station:SCCF:53:1,2017-09-01T06:15:00Z,26.6493,-81.8810,2.11,2.3,60.2,-9999.0,'1111122,1111122,1111122' 
SCCF RECON,ioos:station:SCCF:53:1,2017-09-01T06:30:00Z,26.6493,-81.8810,2.11,1.6,87.4,-9999.0,'1111122,1111122,1111122' 
SCCF RECON,ioos:station:SCCF:53:1,2017-09-01T06:45:00Z,26.6493,-81.8810,2.11,1.7,80.9,-9999.0,'1111122,1111122,1111122' 
SCCF RECON,ioos:station:SCCF:53:1,2017-09-01T07:00:00Z,26.6493,-81.8810,2.11,2.6,56.6,-9999.0,'1111122,1111122,1111122' 
SCCF RECON,ioos:station:SCCF:53:1,2017-09-01T07:15:00Z,26.6493,-81.8810,2.11,3.4,79.1,-9999.0,'1111122,1111122,1111122' 
SCCF RECON,ioos:station:SCCF:53:1,2017-09-01T07:30:00Z,26.6493,-81.8810,2.11,2.6,98.9,-9999.0,'1111122,1111122,1111122' 
SCCF RECON,ioos:station:SCCF:53:1,2017-09-01T07:45:00Z,26.6493,-81.8810,2.11,2.6,108.6,-9999.0,'1111122,1111122,1111122' 
SCCF RECON,ioos:station:SCCF:53:1,2017-09-01T08:00:00Z,26.6493,-81.8810,2.11,2.6,75.8,-9999.0,'1111122,1111122,1111122' 
SCCF RECON,ioos:station:SCCF:53:1,2017-09-01T08:15:00Z,26.6493,-81.8810,2.11,3.5,96.3,-9999.0,'1111122,1111122,1111122' 
SCCF RECON,ioos:station:SCCF:53:1,2017-09-01T08:30:00Z,26.6493,-81.8810,2.11,1.7,109.5,-9999.0,'1111122,1111122,1111122' 
SCCF RECON,ioos:station:SCCF:53:1,2017-09-01T08:45:00Z,26.6493,-81.8810,2.11,3.1,103.1,-9999.0,'1111122,1111122,1111122' 
SCCF RECON,ioos:station:SCCF:53:1,2017-09-01T09:00:00Z,26.6493,-81.8810,2.11,2.2,131.0,-9999.0,'1111122,1111122,1111122' 
SCCF RECON,ioos:station:SCCF:53:1,2017-09-01T09:15:00Z,26.6493,-81.8810,2.11,3.6,99.1,-9999.0,'1111122,1111122,1111122' 
SCCF RECON,ioos:station:SCCF:53:1,2017-09-01T09:30:00Z,26.6493,-81.8810,2.11,2.5,132.3,-9999.0,'1111122,1111122,1111122' 
SCCF RECON,ioos:station:SCCF:53:1,2017-09-01T09:45:00Z,26.6493,-81.8810,2.11,2.8,130.8,-9999.0,'1111122,1111122,1111122' 
SCCF RECON,ioos:station:SCCF:53:1,2017-09-01T10:00:00Z,26.6493,-81.8810,2.11,2.3,109.0,-9999.0,'1111122,1111122,1111122' 
SCCF RECON,ioos:station:SCCF:53:1,2017-09-01T10:15:00Z,26.6493,-81.8810,2.11,2.5,118.4,-9999.0,'1111122,1111122,1111122' 
SCCF RECON,ioos:station:SCCF:53:1,2017-09-01T10:30:00Z,26.6493,-81.8810,2.11,2.3,124.2,-9999.0,'1111122,1111122,1111122' 
SCCF RECON,ioos:station:SCCF:53:1,2017-09-01T10:45:00Z,26.6493,-81.8810,2.11,2.0,143.7,-9999.0,'1111122,1111122,1111122' 
SCCF RECON,ioos:station:SCCF:53:1,2017-09-01T11:00:00Z,26.6493,-81.8810,2.11,2.5,118.8,-9999.0,'1111122,1111122,1111122' 
SCCF RECON,ioos:station:SCCF:53:1,2017-09-01T11:15:00Z,26.6493,-81.8810,2.11,3.9,109.7,-9999.0,'1111122,1111122,1111122' 
SCCF RECON,ioos:station:SCCF:53:1,2017-09-01T11:30:00Z,26.6493,-81.8810,2.11,2.0,146.4,-9999.0,'1111122,1111122,1111122' 
SCCF RECON,ioos:station:SCCF:53:1,2017-09-01T11:45:00Z,26.6493,-81.8810,2.11,2.6,157.8,-9999.0,'1111122,1111122,1111122' 
SCCF RECON,ioos:station:SCCF:53:1,2017-09-01T12:00:00Z,26.6493,-81.8810,2.11,0.9,100.4,-9999.0,'1111122,1111122,1111122' 
SCCF RECON,ioos:station:SCCF:53:1,2017-09-01T12:15:00Z,26.6493,-81.8810,2.11,2.2,143.1,-9999.0,'1111122,1111122,1111122' 
SCCF RECON,ioos:station:SCCF:53:1,2017-09-01T12:30:00Z,26.6493,-81.8810,2.11,1.9,184.9,-9999.0,'1111122,1111122,1111122' 
SCCF RECON,ioos:station:SCCF:53:1,2017-09-01T12:45:00Z,26.6493,-81.8810,2.11,1.4,148.9,-9999.0,'1111122,1111122,1111122' 
SCCF RECON,ioos:station:SCCF:53:1,2017-09-01T13:00:00Z,26.6493,-81.8810,2.11,1.0,108.4,-9999.0,'1111122,1111122,1111122' 
SCCF RECON,ioos:station:SCCF:53:1,2017-09-01T13:15:00Z,26.6493,-81.8810,2.11,2.2,130.0,-9999.0,'1111122,1111122,1111122' 
SCCF RECON,ioos:station:SCCF:53:1,2017-09-01T13:30:00Z,26.6493,-81.8810,2.11,1.8,125.8,-9999.0,'1111122,1111122,1111122' 
SCCF RECON,ioos:station:SCCF:53:1,2017-09-01T13:45:00Z,26.6493,-81.8810,2.11,0.4,170.3,-9999.0,'1111122,1111122,1111122' 
SCCF RECON,ioos:station:SCCF:53:1,2017-09-01T14:00:00Z,26.6493,-81.8810,2.11,1.0,247.8,-9999.0,'1111122,1111122,1111122' 
SCCF RECON,ioos:station:SCCF:53:1,2017-09-01T14:15:00Z,26.6493,-81.8810,2.11,0.6,255.0,-9999.0,'1111122,1111122,1111122' 
SCCF RECON,ioos:station:SCCF:53:1,2017-09-01T14:30:00Z,26.6493,-81.8810,2.11,1.5,269.6,-9999.0,'1111122,1111122,1111122' 
SCCF RECON,ioos:station:SCCF:53:1,2017-09-01T14:45:00Z,26.6493,-81.8810,2.11,0.9,279.1,-9999.0,'1111122,1111122,1111122' 
SCCF RECON,ioos:station:SCCF:53:1,2017-09-01T15:00:00Z,26.6493,-81.8810,2.11,1.0,2.7,-9999.0,'1111122,1111122,1111122' 
SCCF RECON,ioos:station:SCCF:53:1,2017-09-01T15:15:00Z,26.6493,-81.8810,2.11,1.2,299.9,-9999.0,'1111122,1111122,1111122' 
SCCF RECON,ioos:station:SCCF:53:1,2017-09-01T15:30:00Z,26.6493,-81.8810,2.11,1.4,317.3,-9999.0,'1111122,1111122,1111122' 
SCCF RECON,ioos:station:SCCF:53:1,2017-09-01T15:45:00Z,26.6493,-81.8810,2.11,3.2,192.1,-9999.0,'1111122,1111122,1111122' 
SCCF RECON,ioos:station:SCCF:53:1,2017-09-01T16:00:00Z,26.6493,-81.8810,2.11,1.6,136.0,-9999.0,'1111122,1111122,1111122' 
SCCF RECON,ioos:station:SCCF:53:1,2017-09-01T16:15:00Z,26.6493,-81.8810,2.11,2.7,174.5,-9999.0,'1111122,1111122,1111122' 
SCCF RECON,ioos:station:SCCF:53:1,2017-09-01T16:30:00Z,26.6493,-81.8810,2.11,4.5,141.6,-9999.0,'1111122,1111122,1111122' 
SCCF RECON,ioos:station:SCCF:53:1,2017-09-01T16:45:00Z,26.6493,-81.8810,2.11,3.1,124.3,-9999.0,'1111122,1111122,1111122' 
SCCF RECON,ioos:station:SCCF:53:1,2017-09-01T17:00:00Z,26.6493,-81.8810,2.11,2.5,146.8,-9999.0,'1111122,1111122,1111122' 
SCCF RECON,ioos:station:SCCF:53:1,2017-09-01T17:15:00Z,26.6493,-81.8810,2.11,5.4,124.2,-9999.0,'1111122,1111122,1111122' 
SCCF RECON,ioos:station:SCCF:53:1,2017-09-01T17:30:00Z,26.6493,-81.8810,2.11,2.4,152.8,-9999.0,'1111122,1111122,1111122' 
SCCF RECON,ioos:station:SCCF:53:1,2017-09-01T17:45:00Z,26.6493,-81.8810,2.11,0.6,222.4,-9999.0,'1111122,1111122,1111122' 
SCCF RECON,ioos:station:SCCF:53:1,2017-09-01T18:00:00Z,26.6493,-81.8810,2.11,1.4,255.9,-9999.0,'1111122,1111122,1111122' 
SCCF RECON,ioos:station:SCCF:53:1,2017-09-01T18:15:00Z,26.6493,-81.8810,2.11,2.7,240.6,-9999.0,'1111122,1111122,1111122' 
SCCF RECON,ioos:station:SCCF:53:1,2017-09-01T18:30:00Z,26.6493,-81.8810,2.11,3.4,229.9,-9999.0,'1111122,1111122,1111122' 
SCCF RECON,ioos:station:SCCF:53:1,2017-09-01T18:45:00Z,26.6493,-81.8810,2.11,5.2,228.1,-9999.0,'1111122,1111122,1111122' 
SCCF RECON,ioos:station:SCCF:53:1,2017-09-01T19:00:00Z,26.6493,-81.8810,2.11,5.1,226.9,-9999.0,'1111122,1111122,1111122' 
SCCF RECON,ioos:station:SCCF:53:1,2017-09-01T19:15:00Z,26.6493,-81.8810,2.11,6.0,213.7,-9999.0,'1111122,1111122,1111122' 
SCCF RECON,ioos:station:SCCF:53:1,2017-09-01T19:30:00Z,26.6493,-81.8810,2.11,6.7,207.6,-9999.0,'1111122,1111122,1111122' 
SCCF RECON,ioos:station:SCCF:53:1,2017-09-01T19:45:00Z,26.6493,-81.8810,2.11,4.7,201.3,-9999.0,'1111122,1111122,1111122' 
SCCF RECON,ioos:station:SCCF:53:1,2017-09-01T20:00:00Z,26.6493,-81.8810,2.11,5.3,208.3,-9999.0,'1111122,1111122,1111122' 
SCCF RECON,ioos:station:SCCF:53:1,2017-09-01T20:15:00Z,26.6493,-81.8810,2.11,5.2,203.1,-9999.0,'1111122,1111122,1111122' 
SCCF RECON,ioos:station:SCCF:53:1,2017-09-01T20:30:00Z,26.6493,-81.8810,2.11,3.6,175.1,-9999.0,'1111122,1111122,1111122' 
SCCF RECON,ioos:station:SCCF:53:1,2017-09-01T20:45:00Z,26.6493,-81.8810,2.11,2.2,189.4,-9999.0,'1111122,1111122,1111122' 
SCCF RECON,ioos:station:SCCF:53:1,2017-09-01T21:00:00Z,26.6493,-81.8810,2.11,2.1,159.9,-9999.0,'1111122,1111122,1111122' 
SCCF RECON,ioos:station:SCCF:53:1,2017-09-01T21:15:00Z,26.6493,-81.8810,2.11,3.0,80.8,-9999.0,'1111122,1111122,1111122' 
SCCF RECON,ioos:station:SCCF:53:1,2017-09-01T21:30:00Z,26.6493,-81.8810,2.11,3.3,129.4,-9999.0,'1111122,1111122,1111122' 
SCCF RECON,ioos:station:SCCF:53:1,2017-09-01T21:45:00Z,26.6493,-81.8810,2.11,3.8,208.6,-9999.0,'1111122,1111122,1111122' 
SCCF RECON,ioos:station:SCCF:53:1,2017-09-01T22:00:00Z,26.6493,-81.8810,2.11,4.1,224.1,-9999.0,'1111122,1111122,1111122' 
SCCF RECON,ioos:station:SCCF:53:1,2017-09-01T22:15:00Z,26.6493,-81.8810,2.11,6.8,220.8,-9999.0,'1111122,1111122,1111122' 
SCCF RECON,ioos:station:SCCF:53:1,2017-09-01T22:30:00Z,26.6493,-81.8810,2.11,4.4,194.7,-9999.0,'1111122,1111122,1111122' 
SCCF RECON,ioos:station:SCCF:53:1,2017-09-01T22:45:00Z,26.6493,-81.8810,2.11,5.2,170.9,-9999.0,'1111122,1111122,1111122' 
SCCF RECON,ioos:station:SCCF:53:1,2017-09-01T23:00:00Z,26.6493,-81.8810,2.11,3.0,177.5,-9999.0,'1111122,1111122,1111122' 
SCCF RECON,ioos:station:SCCF:53:1,2017-09-01T23:15:00Z,26.6493,-81.8810,2.11,5.9,219.3,-9999.0,'1111122,1111122,1111122' 
SCCF RECON,ioos:station:SCCF:53:1,2017-09-01T23:30:00Z,26.6493,-81.8810,2.11,2.3,293.1,-9999.0,'1111122,1111122,1111122' 
SCCF RECON,ioos:station:SCCF:53:1,2017-09-01T23:45:00Z,26.6493,-81.8810,2.11,5.4,20.6,-9999.0,'1111122,1111122,1111122' 
SCCF RECON,ioos:station:SCCF:53:1,2017-09-02T00:00:00Z,26.6493,-81.8810,2.11,3.4,23.3,-9999.0,'1111122,1111122,1111122' 
SCCF RECON,ioos:station:SCCF:53:1,2017-09-02T00:15:00Z,26.6493,-81.8810,2.11,4.2,328.5,-9999.0,'1111122,1111122,1111122' 
SCCF RECON,ioos:station:SCCF:53:1,2017-09-02T00:30:00Z,26.6493,-81.8810,2.11,1.4,0.9,-9999.0,'1111122,1111122,1111122' 
SCCF RECON,ioos:station:SCCF:53:1,2017-09-02T00:45:00Z,26.6493,-81.8810,2.11,2.9,321.4,-9999.0,'1111122,1111122,1111122' 
SCCF RECON,ioos:station:SCCF:53:1,2017-09-02T01:00:00Z,26.6493,-81.8810,2.11,2.5,16.4,-9999.0,'1111122,1111122,1111122' 
SCCF RECON,ioos:station:SCCF:53:1,2017-09-02T01:15:00Z,26.6493,-81.8810,2.11,3.3,49.1,-9999.0,'1111122,1111122,1111122' 
SCCF RECON,ioos:station:SCCF:53:1,2017-09-02T01:30:00Z,26.6493,-81.8810,2.11,3.1,38.7,-9999.0,'1111122,1111122,1111122' 
SCCF RECON,ioos:station:SCCF:53:1,2017-09-02T01:45:00Z,26.6493,-81.8810,2.11,2.9,5.3,-9999.0,'1111122,1111122,1111122' 
SCCF RECON,ioos:station:SCCF:53:1,2017-09-02T02:00:00Z,26.6493,-81.8810,2.11,2.5,36.2,-9999.0,'1111122,1111122,1111122' 
SCCF RECON,ioos:station:SCCF:53:1,2017-09-02T02:15:00Z,26.6493,-81.8810,2.11,3.2,42.9,-9999.0,'1111122,1111122,1111122' 
SCCF RECON,ioos:station:SCCF:53:1,2017-09-02T02:30:00Z,26.6493,-81.8810,2.11,2.7,38.7,-9999.0,'1111122,1111122,1111122' 
SCCF RECON,ioos:station:SCCF:53:1,2017-09-02T02:45:00Z,26.6493,-81.8810,2.11,3.3,30.7,-9999.0,'1111122,1111122,1111122' 
SCCF RECON,ioos:station:SCCF:53:1,2017-09-02T03:00:00Z,26.6493,-81.8810,2.11,4.8,50.9,-9999.0,'1111122,1111122,1111122' 
SCCF RECON,ioos:station:SCCF:53:1,2017-09-02T03:15:00Z,26.6493,-81.8810,2.11,5.1,72.2,-9999.0,'1111122,1111122,1111122' 
SCCF RECON,ioos:station:SCCF:53:1,2017-09-02T03:30:00Z,26.6493,-81.8810,2.11,3.9,67.4,-9999.0,'1111122,1111122,1111122' 
SCCF RECON,ioos:station:SCCF:53:1,2017-09-02T03:45:00Z,26.6493,-81.8810,2.11,3.5,71.9,-9999.0,'1111122,1111122,1111122' 
SCCF RECON,ioos:station:SCCF:53:1,2017-09-02T04:00:00Z,26.6493,-81.8810,2.11,4.0,43.4,-9999.0,'1111122,1111122,1111122' 
SCCF RECON,ioos:station:SCCF:53:1,2017-09-02T04:15:00Z,26.6493,-81.8810,2.11,3.5,57.2,-9999.0,'1111122,1111122,1111122' 
SCCF RECON,ioos:station:SCCF:53:1,2017-09-02T04:30:00Z,26.6493,-81.8810,2.11,5.0,342.4,-9999.0,'1111122,1111122,1111122' 
SCCF RECON,ioos:station:SCCF:53:1,2017-09-02T04:45:00Z,26.6493,-81.8810,2.11,3.3,31.8,-9999.0,'1111122,1111122,1111122' 
SCCF RECON,ioos:station:SCCF:53:1,2017-09-02T05:00:00Z,26.6493,-81.8810,2.11,2.3,39.4,-9999.0,'1111122,1111122,1111122' 
SCCF RECON,ioos:station:SCCF:53:1,2017-09-02T05:15:00Z,26.6493,-81.8810,2.11,4.3,67.2,-9999.0,'1111122,1111122,1111122' 
SCCF RECON,ioos:station:SCCF:53:1,2017-09-02T05:30:00Z,26.6493,-81.8810,2.11,2.9,69.2,-9999.0,'1111122,1111122,1111122' 
SCCF RECON,ioos:station:SCCF:53:1,2017-09-02T05:45:00Z,26.6493,-81.8810,2.11,4.0,83.4,-9999.0,'1111122,1111122,1111122' 
SCCF RECON,ioos:station:SCCF:53:1,2017-09-02T06:00:00Z,26.6493,-81.8810,2.11,2.2,91.7,-9999.0,'1111122,1111122,1111122' 
SCCF RECON,ioos:station:SCCF:53:1,2017-09-02T06:15:00Z,26.6493,-81.8810,2.11,2.2,111.9,-9999.0,'1111122,1111122,1111122' 
SCCF RECON,ioos:station:SCCF:53:1,2017-09-02T06:30:00Z,26.6493,-81.8810,2.11,1.9,87.5,-9999.0,'1111122,1111122,1111122' 
SCCF RECON,ioos:station:SCCF:53:1,2017-09-02T06:45:00Z,26.6493,-81.8810,2.11,2.3,18.9,-9999.0,'1111122,1111122,1111122' 
SCCF RECON,ioos:station:SCCF:53:1,2017-09-02T07:00:00Z,26.6493,-81.8810,2.11,3.3,0.1,-9999.0,'1111122,1111122,1111122' 
SCCF RECON,ioos:station:SCCF:53:1,2017-09-02T07:15:00Z,26.6493,-81.8810,2.11,3.9,5.1,-9999.0,'1111122,1111122,1111122' 
SCCF RECON,ioos:station:SCCF:53:1,2017-09-02T07:30:00Z,26.6493,-81.8810,2.11,2.1,18.0,-9999.0,'1111122,1111122,1111122' 
SCCF RECON,ioos:station:SCCF:53:1,2017-09-02T07:45:00Z,26.6493,-81.8810,2.11,1.7,43.0,-9999.0,'1111122,1111122,1111122' 
SCCF RECON,ioos:station:SCCF:53:1,2017-09-02T08:00:00Z,26.6493,-81.8810,2.11,0.8,29.5,-9999.0,'1111122,1111122,1111122' 
SCCF RECON,ioos:station:SCCF:53:1,2017-09-02T08:15:00Z,26.6493,-81.8810,2.11,1.7,72.9,-9999.0,'1111122,1111122,1111122' 
SCCF RECON,ioos:station:SCCF:53:1,2017-09-02T08:30:00Z,26.6493,-81.8810,2.11,1.2,77.5,-9999.0,'1111122,1111122,1111122' 
SCCF RECON,ioos:station:SCCF:53:1,2017-09-02T08:45:00Z,26.6493,-81.8810,2.11,1.0,128.6,-9999.0,'1111122,1111122,1111122' 
SCCF RECON,ioos:station:SCCF:53:1,2017-09-02T09:00:00Z,26.6493,-81.8810,2.11,1.3,73.6,-9999.0,'1111122,1111122,1111122' 
SCCF RECON,ioos:station:SCCF:53:1,2017-09-02T09:15:00Z,26.6493,-81.8810,2.11,1.3,118.4,-9999.0,'1111122,1111122,1111122' 
SCCF RECON,ioos:station:SCCF:53:1,2017-09-02T09:30:00Z,26.6493,-81.8810,2.11,2.2,127.3,-9999.0,'1111122,1111122,1111122' 
SCCF RECON,ioos:station:SCCF:53:1,2017-09-02T09:45:00Z,26.6493,-81.8810,2.11,1.6,86.7,-9999.0,'1111122,1111122,1111122' 
SCCF RECON,ioos:station:SCCF:53:1,2017-09-02T10:00:00Z,26.6493,-81.8810,2.11,3.6,144.2,-9999.0,'1111122,1111122,1111122' 
SCCF RECON,ioos:station:SCCF:53:1,2017-09-02T10:15:00Z,26.6493,-81.8810,2.11,2.8,135.3,-9999.0,'1111122,1111122,1111122' 
SCCF RECON,ioos:station:SCCF:53:1,2017-09-02T10:30:00Z,26.6493,-81.8810,2.11,2.1,143.5,-9999.0,'1111122,1111122,1111122' 
SCCF RECON,ioos:station:SCCF:53:1,2017-09-02T10:45:00Z,26.6493,-81.8810,2.11,2.7,133.5,-9999.0,'1111122,1111122,1111122' 
SCCF RECON,ioos:station:SCCF:53:1,2017-09-02T11:00:00Z,26.6493,-81.8810,2.11,2.7,148.8,-9999.0,'1111122,1111122,1111122' 
SCCF RECON,ioos:station:SCCF:53:1,2017-09-02T11:15:00Z,26.6493,-81.8810,2.11,2.3,166.5,-9999.0,'1111122,1111122,1111122' 
SCCF RECON,ioos:station:SCCF:53:1,2017-09-02T11:30:00Z,26.6493,-81.8810,2.11,2.2,130.9,-9999.0,'1111122,1111122,1111122' 
SCCF RECON,ioos:station:SCCF:53:1,2017-09-02T11:45:00Z,26.6493,-81.8810,2.11,1.3,149.2,-9999.0,'1111122,1111122,1111122' 
SCCF RECON,ioos:station:SCCF:53:1,2017-09-02T12:00:00Z,26.6493,-81.8810,2.11,1.9,95.8,-9999.0,'1111122,1111122,1111122' 
SCCF RECON,ioos:station:SCCF:53:1,2017-09-02T12:15:00Z,26.6493,-81.8810,2.11,2.7,120.8,-9999.0,'1111122,1111122,1111122' 
SCCF RECON,ioos:station:SCCF:53:1,2017-09-02T12:30:00Z,26.6493,-81.8810,2.11,2.8,102.9,-9999.0,'1111122,1111122,1111122' 
SCCF RECON,ioos:station:SCCF:53:1,2017-09-02T12:45:00Z,26.6493,-81.8810,2.11,2.3,77.3,-9999.0,'1111122,1111122,1111122' 
SCCF RECON,ioos:station:SCCF:53:1,2017-09-02T13:00:00Z,26.6493,-81.8810,2.11,3.0,81.2,-9999.0,'1111122,1111122,1111122' 
SCCF RECON,ioos:station:SCCF:53:1,2017-09-02T13:15:00Z,26.6493,-81.8810,2.11,2.8,113.8,-9999.0,'1111122,1111122,1111122' 
SCCF RECON,ioos:station:SCCF:53:1,2017-09-02T13:30:00Z,26.6493,-81.8810,2.11,1.5,109.3,-9999.0,'1111122,1111122,1111122' 
SCCF RECON,ioos:station:SCCF:53:1,2017-09-02T13:45:00Z,26.6493,-81.8810,2.11,1.4,85.2,-9999.0,'1111122,1111122,1111122' 
SCCF RECON,ioos:station:SCCF:53:1,2017-09-02T14:00:00Z,26.6493,-81.8810,2.11,1.8,73.2,-9999.0,'1111122,1111122,1111122' 
SCCF RECON,ioos:station:SCCF:53:1,2017-09-02T14:15:00Z,26.6493,-81.8810,2.11,1.7,98.8,-9999.0,'1111122,1111122,1111122' 
SCCF RECON,ioos:station:SCCF:53:1,2017-09-02T14:30:00Z,26.6493,-81.8810,2.11,2.9,135.6,-9999.0,'1111122,1111122,1111122' 
SCCF RECON,ioos:station:SCCF:53:1,2017-09-02T14:45:00Z,26.6493,-81.8810,2.11,3.2,142.8,-9999.0,'1111122,1111122,1111122' 
SCCF RECON,ioos:station:SCCF:53:1,2017-09-02T15:00:00Z,26.6493,-81.8810,2.11,4.0,132.6,-9999.0,'1111122,1111122,1111122' 
SCCF RECON,ioos:station:SCCF:53:1,2017-09-02T15:15:00Z,26.6493,-81.8810,2.11,2.5,145.6,-9999.0,'1111122,1111122,1111122' 
SCCF RECON,ioos:station:SCCF:53:1,2017-09-02T15:30:00Z,26.6493,-81.8810,2.11,2.8,163.8,-9999.0,'1111122,1111122,1111122' 
SCCF RECON,ioos:station:SCCF:53:1,2017-09-02T15:45:00Z,26.6493,-81.8810,2.11,2.9,152.0,-9999.0,'1111122,1111122,1111122' 
SCCF RECON,ioos:station:SCCF:53:1,2017-09-02T16:00:00Z,26.6493,-81.8810,2.11,3.6,138.6,-9999.0,'1111122,1111122,1111122' 
SCCF RECON,ioos:station:SCCF:53:1,2017-09-02T16:15:00Z,26.6493,-81.8810,2.11,1.7,146.3,-9999.0,'1111122,1111122,1111122' 
SCCF RECON,ioos:station:SCCF:53:1,2017-09-02T16:30:00Z,26.6493,-81.8810,2.11,3.1,189.0,-9999.0,'1111122,1111122,1111122' 
SCCF RECON,ioos:station:SCCF:53:1,2017-09-02T16:45:00Z,26.6493,-81.8810,2.11,3.1,179.2,-9999.0,'1111122,1111122,1111122' 
SCCF RECON,ioos:station:SCCF:53:1,2017-09-02T17:00:00Z,26.6493,-81.8810,2.11,2.6,172.3,-9999.0,'1111122,1111122,1111122' 
SCCF RECON,ioos:station:SCCF:53:1,2017-09-02T17:15:00Z,26.6493,-81.8810,2.11,2.2,219.8,-9999.0,'1111122,1111122,1111122' 
SCCF RECON,ioos:station:SCCF:53:1,2017-09-02T17:30:00Z,26.6493,-81.8810,2.11,4.6,218.6,-9999.0,'1111122,1111122,1111122' 
SCCF RECON,ioos:station:SCCF:53:1,2017-09-02T17:45:00Z,26.6493,-81.8810,2.11,4.7,213.2,-9999.0,'1111122,1111122,1111122' 
SCCF RECON,ioos:station:SCCF:53:1,2017-09-02T18:00:00Z,26.6493,-81.8810,2.11,4.7,210.2,-9999.0,'1111122,1111122,1111122' 
SCCF RECON,ioos:station:SCCF:53:1,2017-09-02T18:15:00Z,26.6493,-81.8810,2.11,4.1,224.8,-9999.0,'1111122,1111122,1111122' 
SCCF RECON,ioos:station:SCCF:53:1,2017-09-02T18:30:00Z,26.6493,-81.8810,2.11,4.5,210.4,-9999.0,'1111122,1111122,1111122' 
SCCF RECON,ioos:station:SCCF:53:1,2017-09-02T18:45:00Z,26.6493,-81.8810,2.11,4.1,213.3,-9999.0,'1111122,1111122,1111122' 
SCCF RECON,ioos:station:SCCF:53:1,2017-09-02T19:00:00Z,26.6493,-81.8810,2.11,3.5,207.9,-9999.0,'1111122,1111122,1111122' 
SCCF RECON,ioos:station:SCCF:53:1,2017-09-02T19:15:00Z,26.6493,-81.8810,2.11,3.5,227.3,-9999.0,'1111122,1111122,1111122' 
SCCF RECON,ioos:station:SCCF:53:1,2017-09-02T19:30:00Z,26.6493,-81.8810,2.11,4.6,208.7,-9999.0,'1111122,1111122,1111122' 
SCCF RECON,ioos:station:SCCF:53:1,2017-09-02T19:45:00Z,26.6493,-81.8810,2.11,4.7,210.8,-9999.0,'1111122,1111122,1111122' 
SCCF RECON,ioos:station:SCCF:53:1,2017-09-02T20:00:00Z,26.6493,-81.8810,2.11,5.1,198.1,-9999.0,'1111122,1111122,1111122' 
SCCF RECON,ioos:station:SCCF:53:1,2017-09-02T20:15:00Z,26.6493,-81.8810,2.11,3.9,219.7,-9999.0,'1111122,1111122,1111122' 
SCCF RECON,ioos:station:SCCF:53:1,2017-09-02T20:30:00Z,26.6493,-81.8810,2.11,4.6,197.9,-9999.0,'1111122,1111122,1111122' 
SCCF RECON,ioos:station:SCCF:53:1,2017-09-02T20:45:00Z,26.6493,-81.8810,2.11,4.0,202.3,-9999.0,'1111122,1111122,1111122' 
SCCF RECON,ioos:station:SCCF:53:1,2017-09-02T21:00:00Z,26.6493,-81.8810,2.11,4.8,213.5,-9999.0,'1111122,1111122,1111122' 
SCCF RECON,ioos:station:SCCF:53:1,2017-09-02T21:15:00Z,26.6493,-81.8810,2.11,4.5,197.6,-9999.0,'1111122,1111122,1111122' 
SCCF RECON,ioos:station:SCCF:53:1,2017-09-02T21:30:00Z,26.6493,-81.8810,2.11,2.3,232.4,-9999.0,'1111122,1111122,1111122' 
SCCF RECON,ioos:station:SCCF:53:1,2017-09-02T21:45:00Z,26.6493,-81.8810,2.11,4.0,252.0,-9999.0,'1111122,1111122,1111122' 
SCCF RECON,ioos:station:SCCF:53:1,2017-09-02T22:00:00Z,26.6493,-81.8810,2.11,4.5,278.9,-9999.0,'1111122,1111122,1111122' 
SCCF RECON,ioos:station:SCCF:53:1,2017-09-02T22:15:00Z,26.6493,-81.8810,2.11,3.2,273.8,-9999.0,'1111122,1111122,1111122' 
SCCF RECON,ioos:station:SCCF:53:1,2017-09-02T22:30:00Z,26.6493,-81.8810,2.11,4.1,267.2,-9999.0,'1111122,1111122,1111122' 
SCCF RECON,ioos:station:SCCF:53:1,2017-09-02T22:45:00Z,26.6493,-81.8810,2.11,3.3,268.7,-9999.0,'1111122,1111122,1111122' 
SCCF RECON,ioos:station:SCCF:53:1,2017-09-02T23:00:00Z,26.6493,-81.8810,2.11,3.2,277.2,-9999.0,'1111122,1111122,1111122' 
SCCF RECON,ioos:station:SCCF:53:1,2017-09-02T23:15:00Z,26.6493,-81.8810,2.11,2.3,293.1,-9999.0,'1111122,1111122,1111122' 
SCCF RECON,ioos:station:SCCF:53:1,2017-09-02T23:30:00Z,26.6493,-81.8810,2.11,4.9,331.6,-9999.0,'1111122,1111122,1111122' 
SCCF RECON,ioos:station:SCCF:53:1,2017-09-02T23:45:00Z,26.6493,-81.8810,2.11,4.0,324.2,-9999.0,'1111122,1111122,1111122' 
SCCF RECON,ioos:station:SCCF:53:1,2017-09-03T00:00:00Z,26.6493,-81.8810,2.11,3.5,306.8,-9999.0,'1111122,1111122,1111122' 
SCCF RECON,ioos:station:SCCF:53:1,2017-09-03T00:15:00Z,26.6493,-81.8810,2.11,2.1,4.6,-9999.0,'1111122,1111122,1111122' 
SCCF RECON,ioos:station:SCCF:53:1,2017-09-03T00:30:00Z,26.6493,-81.8810,2.11,1.9,330.7,-9999.0,'1111122,1111122,1111122' 
SCCF RECON,ioos:station:SCCF:53:1,2017-09-03T00:45:00Z,26.6493,-81.8810,2.11,2.4,317.6,-9999.0,'1111122,1111122,1111122' 